Location: Bernay
(48.6766°N, 2.9386°E)
Time: 19:07:10
(UTC+00:00)

Cosmos 1697 Rocket - Pass Details

Date: 12 January 2026
Orbit: 830 x 844 km, 71.0° (Epoch: 17 February)

Event Time Altitude Azimuth Distance (km) Brightness Sun altitude
Rises 18:50:43 0° 335° (NNW) 3,406 6.1 -24.8°
Reaches altitude 10° 18:53:22 10° 344° (NNW) 2,469 5.2 -25.2°
Enters shadow 18:56:33 28° 10° (N) 1,539 3.9 -25.7°
